Regional Weather Roundup
Issued by NWS

Home | Current Version | Previous Version | Text Only | Print | Product List | Glossary On
Versions: 1 2 3 4 5 6 7 8 9 10 11 12 13 14 15 16 17 18 19 20 21 22 23 24 25 26 27 28 29 30 31 32 33 34 35 36 37 38 39 40 41 42 43 44 45 46 47 48 49 50
801
ASUS44 KJAN 010603
RWRMS

MISSISSIPPI HOURLY WEATHER ROUNDUP
NATIONAL WEATHER SERVICE JACKSON MS
100 AM CDT MON SEP 01 2014

NOTE: "FAIR: INDICATES FEW OR NO CLOUDS BELOW 12,000 FEET WITH NO
SIGNIFICANT WEATHER AND/OR OBSTRUCTIONS TO VISIBILITY.

MSZ001>002-007>008-010>013-018>021-025>028-034>036-010700-
NORTHWEST MISSISSIPPI

CITY           SKY/WX    TMP DP  RH WIND       PRES   REMARKS
CLARKSDALE     FAIR      77  77 100 CALM      29.99S
CLEVELAND      FAIR      77  76  98 S7        29.98S
GREENWOOD      FAIR      77  74  90 S6        30.00F
6HR MIN TEMP:  76; 6HR MAX TEMP:  82;

GREENVILLE     FAIR      77  74  90 S7        29.98F
6HR MIN TEMP:  77; 6HR MAX TEMP:  84;

GRENADA        FAIR      73  73 100 CALM      30.01F
OLIVE BRANCH   CLEAR     73 N/A N/A S5        30.00S
OXFORD         FAIR      75  73  94 S3        30.02F
TUNICA         FAIR      75  73  94 S6        29.99S
$$

MSZ003>006-009-014>017-022>024-029>033-037>039-010700-
NORTHEAST MISSISSIPPI

CITY           SKY/WX    TMP DP  RH WIND       PRES   REMARKS
BELMONT        FAIR      76  73  93 S5        30.04F
COLUMBUS AFB   FAIR      74  73  96 SE1       30.04S
6HR MIN TEMP:  73; 6HR MAX TEMP:  82;

CORINTH        FAIR      75  73  94 S6        30.02R
GOLDN TRIANGLE FAIR      73  70  88 S3        30.05S
STARKVILLE     FAIR      72  72 100 CALM      30.04S
TUPELO         FAIR      77  74  90 S7        30.02F
6HR MIN TEMP:  76; 6HR MAX TEMP:  83;

$$

MSZ040-058-010700-
CENTRAL MISSISSIPPI

CITY           SKY/WX    TMP DP  RH WIND       PRES   REMARKS
JACKSON INTL   FAIR      77  72  84 S7        30.04S
6HR MIN TEMP:  77; 6HR MAX TEMP:  83;

JACKSON HAWKNS FAIR      77  72  84 S8        30.04S
6HR MIN TEMP:  77; 6HR MAX TEMP:  83;

MERIDIAN KEY   FAIR      75  72  90 SW3       30.05F
6HR MIN TEMP:  75; 6HR MAX TEMP:  86;

MERIDIAN NAS   FAIR      75  72  90 CALM      30.05F
6HR MIN TEMP:  75; 6HR MAX TEMP:  84;

RAYMOND        FAIR      77  72  83 SE5       30.03S
VICKSBURG      FAIR      78  73  84 S8        30.01S
6HR MIN TEMP:  75; 6HR MAX TEMP:  82;

$$

MSZ059>079-010700-
SOUTH MISSISSIPPI

CITY           SKY/WX    TMP DP  RH WIND       PRES   REMARKS
BROOKHAVEN     FAIR      77  75  94 S5        30.06S
HATTIESBURG    FAIR      76  73  91 CALM      30.06F
6HR MIN TEMP:  74; 6HR MAX TEMP:  89;

MCCOMB         FAIR      76  74  93 SE6       30.05S
6HR MIN TEMP:  76; 6HR MAX TEMP:  83;

NATCHEZ        FAIR      77  73  88 S6        30.03S
6HR MIN TEMP:  77; 6HR MAX TEMP:  84;

PINE BELT      FAIR      73  70  88 CALM      30.07S
6HR MIN TEMP:  73; 6HR MAX TEMP:  86;

$$

MSZ080>082-010700-
COASTAL MISSISSIPPI

CITY           SKY/WX    TMP DP  RH WIND       PRES   REMARKS
BILOXI         FAIR      84  76  77 S10       30.04F HX  93
6HR MIN TEMP:  84; 6HR MAX TEMP:  85;

PASCAGOULA     FAIR      75  74  96 CALM      30.05F
6HR MIN TEMP:  74; 6HR MAX TEMP:  84;

GULFPORT       FAIR      83  76  79 SE9       30.03F HX  91
6HR MIN TEMP:  83; 6HR MAX TEMP:  86;

$$



USA.gov is the U.S. government's official web portal to all federal, state and local government web resources and services.